Regional Weather Roundup
Issued by NWS

Home | Current Version | Previous Version | Graphics & Text | Print | Product List | Glossary On
Versions: 1 2 3 4 5 6 7 8 9 10 11 12 13 14 15 16 17 18 19 20 21 22 23 24 25 26 27
000
ASUS45 KBOI 200710
RWRID
WEATHER ROUNDUP FOR IDAHO
NATIONAL WEATHER SERVICE BOISE ID
100 AM MDT SUN APR 20 2014

NOTE: "FAIR" INDICATES FEW OR NO CLOUDS BELOW 12000 FEET
WITH NO SIGNIFICANT WEATHER AND/OR OBSTRUCTIONS TO VISIBILITY

IDZ012-014-200800-
SOUTHWEST IDAHO


CITY           SKY/WX    TMP DP  RH WIND       PRES   REMARKS
BOISE          PTCLDY    55  30  38 NW9       30.06R
CALDWELL       PTCLDY    54  28  37 N9        30.11R
MOUNTAIN HOME  PTCLDY    56  31  38 NW22G33   30.03R
$$

IDZ016-017-200800-
SOUTHCENTRAL IDAHO


CITY           SKY/WX    TMP DP  RH WIND       PRES   REMARKS
BURLEY         PTCLDY    56  28  34 W24G36    29.95R
JEROME         CLEAR     52  31  44 SW14      29.98R
TWIN FALLS     CLEAR     54  29  38 W26G39    30.00R
$$

IDZ019>023-200800-
SOUTHEAST IDAHO


CITY           SKY/WX    TMP DP  RH WIND       PRES   REMARKS
IDAHO FALLS    MOCLDY    47  27  45 SW5       29.97S
POCATELLO      PTCLDY    60  30  32 S18       29.95S
REXBURG        PTCLDY    52  24  33 S12       29.96R
$$

IDZ006-010-011-018-031-032-200800-
CENTRAL IDAHO MOUNTAINS


CITY           SKY/WX    TMP DP  RH WIND       PRES   REMARKS
MCCALL         MOCLDY    42  27  55 N13       30.06R
HAILEY         CLEAR     45  23  42 NW10      30.01S
STANLEY          N/A     40  24  53 CALM      30.05R
SALMON         CLOUDY    46  25  42 NE12      29.92R
CHALLIS        MOCLDY    47  17  30 CALM      29.96R
$$

IDZ002-004-006-007-026-200800-
NORTHERN IDAHO


CITY           SKY/WX    TMP DP  RH WIND       PRES   REMARKS
LEWISTON       CLEAR     53  28  38 W20G30    30.12R
LOWELL           N/A     46  44  93 NW3       30.16R
COEUR D`ALENE  CLOUDY    46  36  66 SW9       30.03R
MULLAN PASS    MIX PCPN  31  28  89 SW10G26   29.99R WCI  22
$$



USA.gov is the U.S. government's official web portal to all federal, state and local government web resources and services.